Year,Month,Day,Hour,Minute,Value (Times are PST for temperature in C)
2018,06,01,00,00,12.70
2018,06,01,00,01,12.70
2018,06,01,00,02,12.70
2018,06,01,00,03,12.60
2018,06,01,00,04,12.60
2018,06,01,00,05,12.50
2018,06,01,00,06,12.50
2018,06,01,00,07,12.40
2018,06,01,00,08,12.40
2018,06,01,00,09,12.30
2018,06,01,00,10,12.30
2018,06,01,00,11,12.30
2018,06,01,00,12,12.30
2018,06,01,00,13,12.30
2018,06,01,00,14,12.30
2018,06,01,00,15,12.30
2018,06,01,00,16,12.30
2018,06,01,00,17,12.30
2018,06,01,00,18,12.40
2018,06,01,00,19,12.40
2018,06,01,00,20,12.50
2018,06,01,00,21,12.50
2018,06,01,00,22,12.50
2018,06,01,00,23,12.50
2018,06,01,00,24,12.50
2018,06,01,00,25,12.50
2018,06,01,00,26,12.50
2018,06,01,00,27,12.50
2018,06,01,00,28,12.40
2018,06,01,00,29,12.40
2018,06,01,00,30,12.40
2018,06,01,00,31,12.40
2018,06,01,00,32,12.40
2018,06,01,00,33,12.40
2018,06,01,00,34,12.40
2018,06,01,00,35,12.40
2018,06,01,00,36,12.40
2018,06,01,00,37,12.30
2018,06,01,00,38,12.30
2018,06,01,00,39,12.30
2018,06,01,00,40,12.20
2018,06,01,00,41,12.20
2018,06,01,00,42,12.10
2018,06,01,00,43,12.10
2018,06,01,00,44,12.00
2018,06,01,00,45,12.00
2018,06,01,00,46,11.90
2018,06,01,00,47,11.90
2018,06,01,00,48,11.90
2018,06,01,00,49,11.80
2018,06,01,00,50,11.80
2018,06,01,00,51,11.80
2018,06,01,00,52,11.80
2018,06,01,00,53,11.70
2018,06,01,00,54,11.60
2018,06,01,00,55,11.60
2018,06,01,00,56,11.50
2018,06,01,00,57,11.40
2018,06,01,00,58,11.40
2018,06,01,00,59,11.40
2018,06,01,01,00,11.40
2018,06,01,01,01,11.40
2018,06,01,01,02,11.40
2018,06,01,01,03,11.40
2018,06,01,01,04,11.40
2018,06,01,01,05,11.50
2018,06,01,01,06,11.50
2018,06,01,01,07,11.50
2018,06,01,01,08,11.50
2018,06,01,01,09,11.50
2018,06,01,01,10,11.50
2018,06,01,01,11,11.40
2018,06,01,01,12,11.40
2018,06,01,01,13,11.30
2018,06,01,01,14,11.20
2018,06,01,01,15,11.20
2018,06,01,01,16,11.10
2018,06,01,01,17,11.00
2018,06,01,01,18,10.90
2018,06,01,01,19,10.80
2018,06,01,01,20,10.70
2018,06,01,01,21,10.60
2018,06,01,01,22,10.60
2018,06,01,01,23,10.50
2018,06,01,01,24,10.40
2018,06,01,01,25,10.30
2018,06,01,01,26,10.20
2018,06,01,01,27,10.20
2018,06,01,01,28,10.10
2018,06,01,01,29,10.10
2018,06,01,01,30,10.00
2018,06,01,01,31,9.90
2018,06,01,01,32,9.90
2018,06,01,01,33,9.80
2018,06,01,01,34,9.80
2018,06,01,01,35,9.80
2018,06,01,01,36,9.70
2018,06,01,01,37,9.70
2018,06,01,01,38,9.70
2018,06,01,01,39,9.60
2018,06,01,01,40,9.60
2018,06,01,01,41,9.50
2018,06,01,01,42,9.50
2018,06,01,01,43,9.50
2018,06,01,01,44,9.40
2018,06,01,01,45,9.40
2018,06,01,01,46,9.40
2018,06,01,01,47,9.30
2018,06,01,01,48,9.30
2018,06,01,01,49,9.30
2018,06,01,01,50,9.20
2018,06,01,01,51,9.20
2018,06,01,01,52,9.20
2018,06,01,01,53,9.10
2018,06,01,01,54,9.10
2018,06,01,01,55,9.10
2018,06,01,01,56,9.00
2018,06,01,01,57,9.00
2018,06,01,01,58,8.90
2018,06,01,01,59,8.90
2018,06,01,02,00,8.90
2018,06,01,02,01,8.90
2018,06,01,02,02,8.90
2018,06,01,02,03,8.90
2018,06,01,02,04,8.80
2018,06,01,02,05,8.80
2018,06,01,02,06,8.80
2018,06,01,02,07,8.80
2018,06,01,02,08,8.80
2018,06,01,02,09,8.80
2018,06,01,02,10,8.80
2018,06,01,02,11,8.80
2018,06,01,02,12,8.80
2018,06,01,02,13,8.80
2018,06,01,02,14,8.90
2018,06,01,02,15,8.90
2018,06,01,02,16,8.90
2018,06,01,02,17,8.90
2018,06,01,02,18,8.90
2018,06,01,02,19,8.90
2018,06,01,02,20,8.90
2018,06,01,02,21,8.90
2018,06,01,02,22,8.90
2018,06,01,02,23,8.90
2018,06,01,02,24,8.80
2018,06,01,02,25,8.80
2018,06,01,02,26,8.80
2018,06,01,02,27,8.80
2018,06,01,02,28,8.80
2018,06,01,02,29,8.80
2018,06,01,02,30,8.80
2018,06,01,02,31,8.80
2018,06,01,02,32,8.80
2018,06,01,02,33,8.80
2018,06,01,02,34,8.70
2018,06,01,02,35,8.70
2018,06,01,02,36,8.60
2018,06,01,02,37,8.60
2018,06,01,02,38,8.60
2018,06,01,02,39,8.60
2018,06,01,02,40,8.50
2018,06,01,02,41,8.50
2018,06,01,02,42,8.40
2018,06,01,02,43,8.40
2018,06,01,02,44,8.40
2018,06,01,02,45,8.30
2018,06,01,02,46,8.30
2018,06,01,02,47,8.30
2018,06,01,02,48,8.20
2018,06,01,02,49,8.20
2018,06,01,02,50,8.20
2018,06,01,02,51,8.20
2018,06,01,02,52,8.10
2018,06,01,02,53,8.10
2018,06,01,02,54,8.00
2018,06,01,02,55,8.00
2018,06,01,02,56,7.90
2018,06,01,02,57,7.90
2018,06,01,02,58,7.90
2018,06,01,02,59,7.80
2018,06,01,03,00,7.80
2018,06,01,03,01,7.80
2018,06,01,03,02,7.80
2018,06,01,03,03,7.70
2018,06,01,03,04,7.70
2018,06,01,03,05,7.70
2018,06,01,03,06,7.70
2018,06,01,03,07,7.60
2018,06,01,03,08,7.60
2018,06,01,03,09,7.60
2018,06,01,03,10,7.60
2018,06,01,03,11,7.60
2018,06,01,03,12,7.60
2018,06,01,03,13,7.60
2018,06,01,03,14,7.60
2018,06,01,03,15,7.70
2018,06,01,03,16,7.70
2018,06,01,03,17,7.70
2018,06,01,03,18,7.70
2018,06,01,03,19,7.70
2018,06,01,03,20,7.70
2018,06,01,03,21,7.70
2018,06,01,03,22,7.70
2018,06,01,03,23,7.70
2018,06,01,03,24,7.70
2018,06,01,03,25,7.70
2018,06,01,03,26,7.70
2018,06,01,03,27,7.60
2018,06,01,03,28,7.60
2018,06,01,03,29,7.60
2018,06,01,03,30,7.60
2018,06,01,03,31,7.60
2018,06,01,03,32,7.50
2018,06,01,03,33,7.50
2018,06,01,03,34,7.50
2018,06,01,03,35,7.50
2018,06,01,03,36,7.50
2018,06,01,03,37,7.40
2018,06,01,03,38,7.40
2018,06,01,03,39,7.40
2018,06,01,03,40,7.40
2018,06,01,03,41,7.40
2018,06,01,03,42,7.40
2018,06,01,03,43,7.40
2018,06,01,03,44,7.40
2018,06,01,03,45,7.30
2018,06,01,03,46,7.30
2018,06,01,03,47,7.30
2018,06,01,03,48,7.20
2018,06,01,03,49,7.20
2018,06,01,03,50,7.20
2018,06,01,03,51,7.20
2018,06,01,03,52,7.20
2018,06,01,03,53,7.20
2018,06,01,03,54,7.20
2018,06,01,03,55,7.20
2018,06,01,03,56,7.20
2018,06,01,03,57,7.20
2018,06,01,03,58,7.20
2018,06,01,03,59,7.10
2018,06,01,04,00,7.10
2018,06,01,04,01,7.10
2018,06,01,04,02,7.10
2018,06,01,04,03,7.10
2018,06,01,04,04,7.10
2018,06,01,04,05,7.10
2018,06,01,04,06,7.10
2018,06,01,04,07,7.10
2018,06,01,04,08,7.10
2018,06,01,04,09,7.00
2018,06,01,04,10,7.00
2018,06,01,04,11,7.00
2018,06,01,04,12,7.00
2018,06,01,04,13,7.00
2018,06,01,04,14,7.00
2018,06,01,04,15,6.90
2018,06,01,04,16,6.90
2018,06,01,04,17,6.90
2018,06,01,04,18,6.90
2018,06,01,04,19,6.90
2018,06,01,04,20,6.80
2018,06,01,04,21,6.80
2018,06,01,04,22,6.80
2018,06,01,04,23,6.80
2018,06,01,04,24,6.80
2018,06,01,04,25,6.80
2018,06,01,04,26,6.80
2018,06,01,04,27,6.70
2018,06,01,04,28,6.70
2018,06,01,04,29,6.70
2018,06,01,04,30,6.60
2018,06,01,04,31,6.50
2018,06,01,04,32,6.50
2018,06,01,04,33,6.50
2018,06,01,04,34,6.50
2018,06,01,04,35,6.40
2018,06,01,04,36,6.40
2018,06,01,04,37,6.40
2018,06,01,04,38,6.40
2018,06,01,04,39,6.40
2018,06,01,04,40,6.40
2018,06,01,04,41,6.30
2018,06,01,04,42,6.30
2018,06,01,04,43,6.30
2018,06,01,04,44,6.30
2018,06,01,04,45,6.30
2018,06,01,04,46,6.20
2018,06,01,04,47,6.20
2018,06,01,04,48,6.20
2018,06,01,04,49,6.20
2018,06,01,04,50,6.10
2018,06,01,04,51,6.10
2018,06,01,04,52,6.10
2018,06,01,04,53,6.10
2018,06,01,04,54,6.00
2018,06,01,04,55,6.00
2018,06,01,04,56,6.00
2018,06,01,04,57,6.00
2018,06,01,04,58,5.90
2018,06,01,04,59,5.90
2018,06,01,05,00,5.90
2018,06,01,05,01,5.90
2018,06,01,05,02,5.90
2018,06,01,05,03,5.90
2018,06,01,05,04,5.90
2018,06,01,05,05,5.90
2018,06,01,05,06,5.80
2018,06,01,05,07,5.80
2018,06,01,05,08,5.80
2018,06,01,05,09,5.80
2018,06,01,05,10,5.80
2018,06,01,05,11,5.80
2018,06,01,05,12,5.80
2018,06,01,05,13,5.70
2018,06,01,05,14,5.70
2018,06,01,05,15,5.70
2018,06,01,05,16,5.70
2018,06,01,05,17,5.70
2018,06,01,05,18,5.70
2018,06,01,05,19,5.70
2018,06,01,05,20,5.70
2018,06,01,05,21,5.60
2018,06,01,05,22,5.60
2018,06,01,05,23,5.60
2018,06,01,05,24,5.60
2018,06,01,05,25,5.60
2018,06,01,05,26,5.60
2018,06,01,05,27,5.70
2018,06,01,05,28,5.70
2018,06,01,05,29,5.70
2018,06,01,05,30,5.80
2018,06,01,05,31,5.80
2018,06,01,05,32,5.80
2018,06,01,05,33,5.80
2018,06,01,05,34,5.80
2018,06,01,05,35,5.80
2018,06,01,05,36,5.80
2018,06,01,05,37,5.80
2018,06,01,05,38,5.80
2018,06,01,05,39,5.80
2018,06,01,05,40,5.80
2018,06,01,05,41,5.80
2018,06,01,05,42,5.80
2018,06,01,05,43,5.80
2018,06,01,05,44,5.80
2018,06,01,05,45,5.80
2018,06,01,05,46,5.80
2018,06,01,05,47,5.80
2018,06,01,05,48,5.80
2018,06,01,05,49,5.80
2018,06,01,05,50,5.80
2018,06,01,05,51,5.80
2018,06,01,05,52,5.80
2018,06,01,05,53,5.80
2018,06,01,05,54,5.80
2018,06,01,05,55,5.80
2018,06,01,05,56,5.80
2018,06,01,05,57,5.80
2018,06,01,05,58,5.80
2018,06,01,05,59,5.90
2018,06,01,06,00,5.90
2018,06,01,06,01,5.90
2018,06,01,06,02,5.90
2018,06,01,06,03,5.90
2018,06,01,06,04,5.90
2018,06,01,06,05,5.90
2018,06,01,06,06,6.00
2018,06,01,06,07,6.00
2018,06,01,06,08,6.00
2018,06,01,06,09,6.10
2018,06,01,06,10,6.10
2018,06,01,06,11,6.10
2018,06,01,06,12,6.20
2018,06,01,06,13,6.20
2018,06,01,06,14,6.20
2018,06,01,06,15,6.20
2018,06,01,06,16,6.30
2018,06,01,06,17,6.30
2018,06,01,06,18,6.30
2018,06,01,06,19,6.30
2018,06,01,06,20,6.30
2018,06,01,06,21,6.40
2018,06,01,06,22,6.40
2018,06,01,06,23,6.40
2018,06,01,06,24,6.40
2018,06,01,06,25,6.40
2018,06,01,06,26,6.40
2018,06,01,06,27,6.40
2018,06,01,06,28,6.40
2018,06,01,06,29,6.40
2018,06,01,06,30,6.40
2018,06,01,06,31,6.40
2018,06,01,06,32,6.40
2018,06,01,06,33,6.40
2018,06,01,06,34,6.40
2018,06,01,06,35,6.50
2018,06,01,06,36,6.50
2018,06,01,06,37,6.60
2018,06,01,06,38,6.60
2018,06,01,06,39,6.60
2018,06,01,06,40,6.60
2018,06,01,06,41,6.60
2018,06,01,06,42,6.60
2018,06,01,06,43,6.60
2018,06,01,06,44,6.60
2018,06,01,06,45,6.60
2018,06,01,06,46,6.60
2018,06,01,06,47,6.60
2018,06,01,06,48,6.60
2018,06,01,06,49,6.60
2018,06,01,06,50,6.60
2018,06,01,06,51,6.60
2018,06,01,06,52,6.60
2018,06,01,06,53,6.60
2018,06,01,06,54,6.60
2018,06,01,06,55,6.60
2018,06,01,06,56,6.70
2018,06,01,06,57,6.70
2018,06,01,06,58,6.70
2018,06,01,06,59,6.70
2018,06,01,07,00,6.70
2018,06,01,07,01,6.70
2018,06,01,07,02,6.70
2018,06,01,07,03,6.70
2018,06,01,07,04,6.70
2018,06,01,07,05,6.70
2018,06,01,07,06,6.80
2018,06,01,07,07,6.80
2018,06,01,07,08,6.80
2018,06,01,07,09,6.80
2018,06,01,07,10,6.80
2018,06,01,07,11,6.80
2018,06,01,07,12,6.80
2018,06,01,07,13,6.80
2018,06,01,07,14,6.90
2018,06,01,07,15,6.90
2018,06,01,07,16,6.90
2018,06,01,07,17,6.90
2018,06,01,07,18,6.90
2018,06,01,07,19,6.90
2018,06,01,07,20,6.90
2018,06,01,07,21,6.90
2018,06,01,07,22,6.90
2018,06,01,07,23,6.90
2018,06,01,07,24,7.00
2018,06,01,07,25,7.00
2018,06,01,07,26,7.00
2018,06,01,07,27,7.10
2018,06,01,07,28,7.10
2018,06,01,07,29,7.10
2018,06,01,07,30,7.10
2018,06,01,07,31,7.10
2018,06,01,07,32,7.10
2018,06,01,07,33,7.10
2018,06,01,07,34,7.20
2018,06,01,07,35,7.20
2018,06,01,07,36,7.20
2018,06,01,07,37,7.20
2018,06,01,07,38,7.20
2018,06,01,07,39,7.20
2018,06,01,07,40,7.20
2018,06,01,07,41,7.20
2018,06,01,07,42,7.30
2018,06,01,07,43,7.30
2018,06,01,07,44,7.30
2018,06,01,07,45,7.30
2018,06,01,07,46,7.30
2018,06,01,07,47,7.40
2018,06,01,07,48,7.40
2018,06,01,07,49,7.40
2018,06,01,07,50,7.40
2018,06,01,07,51,7.50
2018,06,01,07,52,7.50
2018,06,01,07,53,7.50
2018,06,01,07,54,7.50
2018,06,01,07,55,7.50
2018,06,01,07,56,7.50
2018,06,01,07,57,7.50
2018,06,01,07,58,7.50
2018,06,01,07,59,7.50
2018,06,01,08,00,7.50
2018,06,01,08,01,7.50
2018,06,01,08,02,7.50
2018,06,01,08,03,7.50
2018,06,01,08,04,7.50
2018,06,01,08,05,7.50
2018,06,01,08,06,7.50
2018,06,01,08,07,7.50
2018,06,01,08,08,7.60
2018,06,01,08,09,7.60
2018,06,01,08,10,7.60
2018,06,01,08,11,7.60
2018,06,01,08,12,7.60
2018,06,01,08,13,7.60
2018,06,01,08,14,7.70
2018,06,01,08,15,7.70
2018,06,01,08,16,7.70
2018,06,01,08,17,7.70
2018,06,01,08,18,7.70
2018,06,01,08,19,7.70
2018,06,01,08,20,7.70
2018,06,01,08,21,7.70
2018,06,01,08,22,7.70
2018,06,01,08,23,7.70
2018,06,01,08,24,7.70
2018,06,01,08,25,7.70
2018,06,01,08,26,7.70
2018,06,01,08,27,7.70
2018,06,01,08,28,7.70
2018,06,01,08,29,7.70
2018,06,01,08,30,7.70
2018,06,01,08,31,7.70
2018,06,01,08,32,7.70
2018,06,01,08,33,7.70
2018,06,01,08,34,7.70
2018,06,01,08,35,7.70
2018,06,01,08,36,7.70
2018,06,01,08,37,7.70
2018,06,01,08,38,7.70
2018,06,01,08,39,7.70
2018,06,01,08,40,7.70
2018,06,01,08,41,7.70
2018,06,01,08,42,7.70
2018,06,01,08,43,7.70
2018,06,01,08,44,7.70
2018,06,01,08,45,7.70
2018,06,01,08,46,7.70
2018,06,01,08,47,7.70
2018,06,01,08,48,7.70
2018,06,01,08,49,7.70
2018,06,01,08,50,7.70
2018,06,01,08,51,7.70
2018,06,01,08,52,7.70
2018,06,01,08,53,7.70
2018,06,01,08,54,7.70
2018,06,01,08,55,7.70
2018,06,01,08,56,7.70
2018,06,01,08,57,7.70
2018,06,01,08,58,7.70
2018,06,01,08,59,7.70
2018,06,01,09,00,7.70
2018,06,01,09,01,7.70
2018,06,01,09,02,7.70
2018,06,01,09,03,7.70
2018,06,01,09,04,7.70
2018,06,01,09,05,7.70
2018,06,01,09,06,7.80
2018,06,01,09,07,7.80
2018,06,01,09,08,7.80
2018,06,01,09,09,7.80
2018,06,01,09,10,7.80
2018,06,01,09,11,7.70
2018,06,01,09,12,7.70
2018,06,01,09,13,7.70
2018,06,01,09,14,7.70
2018,06,01,09,15,7.70
2018,06,01,09,16,7.70
2018,06,01,09,17,7.80
2018,06,01,09,18,7.80
2018,06,01,09,19,7.80
2018,06,01,09,20,7.70
2018,06,01,09,21,7.70
2018,06,01,09,22,7.70
2018,06,01,09,23,7.70
2018,06,01,09,24,7.70
2018,06,01,09,25,7.70
2018,06,01,09,26,7.80
2018,06,01,09,27,7.70
2018,06,01,09,28,7.70
2018,06,01,09,29,7.70
2018,06,01,09,30,7.70
2018,06,01,09,31,7.70
2018,06,01,09,32,7.70
2018,06,01,09,33,7.70
2018,06,01,09,34,7.70
2018,06,01,09,35,7.70
2018,06,01,09,36,7.80
2018,06,01,09,37,7.80
2018,06,01,09,38,7.80
2018,06,01,09,39,7.80
2018,06,01,09,40,7.80
2018,06,01,09,41,7.80
2018,06,01,09,42,7.80
2018,06,01,09,43,7.80
2018,06,01,09,44,7.80
2018,06,01,09,45,7.80
2018,06,01,09,46,7.80
2018,06,01,09,47,7.80
2018,06,01,09,48,7.90
2018,06,01,09,49,7.90
2018,06,01,09,50,7.90
2018,06,01,09,51,7.90
2018,06,01,09,52,8.00
2018,06,01,09,53,8.00
2018,06,01,09,54,8.00
2018,06,01,09,55,8.10
2018,06,01,09,56,8.10
2018,06,01,09,57,8.10
2018,06,01,09,58,8.20
2018,06,01,09,59,8.30
2018,06,01,10,00,8.30
2018,06,01,10,01,8.40
2018,06,01,10,02,8.50
2018,06,01,10,03,8.60
2018,06,01,10,04,8.60
2018,06,01,10,05,8.70
2018,06,01,10,06,8.70
2018,06,01,10,07,8.70
2018,06,01,10,08,8.80
2018,06,01,10,09,8.80
2018,06,01,10,10,8.80
2018,06,01,10,11,8.90
2018,06,01,10,12,8.90
2018,06,01,10,13,8.90
2018,06,01,10,14,9.00
2018,06,01,10,15,9.00
2018,06,01,10,16,9.00
2018,06,01,10,17,9.00
2018,06,01,10,18,8.90
2018,06,01,10,19,8.90
2018,06,01,10,20,8.90
2018,06,01,10,21,8.80
2018,06,01,10,22,8.80
2018,06,01,10,23,8.80
2018,06,01,10,24,8.70
2018,06,01,10,25,8.70
2018,06,01,10,26,8.70
2018,06,01,10,27,8.70
2018,06,01,10,28,8.70
2018,06,01,10,29,8.70
2018,06,01,10,30,8.70
2018,06,01,10,31,8.80
2018,06,01,10,32,8.80
2018,06,01,10,33,8.80
2018,06,01,10,34,8.80
2018,06,01,10,35,8.80
2018,06,01,10,36,8.80
2018,06,01,10,37,8.80
2018,06,01,10,38,8.80
2018,06,01,10,39,8.80
2018,06,01,10,40,8.80
2018,06,01,10,41,8.80
2018,06,01,10,42,8.80
2018,06,01,10,43,8.80
2018,06,01,10,44,8.80
2018,06,01,10,45,8.80
2018,06,01,10,46,8.80
2018,06,01,10,47,8.80
2018,06,01,10,48,8.80
2018,06,01,10,49,8.80
2018,06,01,10,50,8.80
2018,06,01,10,51,8.80
2018,06,01,10,52,8.80
2018,06,01,10,53,8.80
2018,06,01,10,54,8.90
2018,06,01,10,55,8.90
2018,06,01,10,56,8.90
2018,06,01,10,57,9.00
2018,06,01,10,58,9.00
2018,06,01,10,59,9.10
2018,06,01,11,00,9.10
2018,06,01,11,01,9.20
2018,06,01,11,02,9.20
2018,06,01,11,03,9.30
2018,06,01,11,04,9.40
2018,06,01,11,05,9.50
2018,06,01,11,06,9.60
2018,06,01,11,07,9.70
2018,06,01,11,08,9.70
2018,06,01,11,09,9.80
2018,06,01,11,10,9.80
2018,06,01,11,11,9.90
2018,06,01,11,12,9.90
2018,06,01,11,13,9.90
2018,06,01,11,14,10.00
2018,06,01,11,15,10.00
2018,06,01,11,16,10.10
2018,06,01,11,17,10.10
2018,06,01,11,18,10.10
2018,06,01,11,19,10.10
2018,06,01,11,20,10.20
2018,06,01,11,21,10.20
2018,06,01,11,22,10.10
2018,06,01,11,23,10.10
2018,06,01,11,24,10.10
2018,06,01,11,25,10.10
2018,06,01,11,26,10.10
2018,06,01,11,27,10.10
2018,06,01,11,28,10.10
2018,06,01,11,29,10.10
2018,06,01,11,30,10.20
2018,06,01,11,31,10.20
2018,06,01,11,32,10.20
2018,06,01,11,33,10.30
2018,06,01,11,34,10.40
2018,06,01,11,35,10.50
2018,06,01,11,36,10.70
2018,06,01,11,37,10.80
2018,06,01,11,38,10.90
2018,06,01,11,39,11.00
2018,06,01,11,40,11.10
2018,06,01,11,41,11.10
2018,06,01,11,42,11.20
2018,06,01,11,43,11.20
2018,06,01,11,44,11.30
2018,06,01,11,45,11.30
2018,06,01,11,46,11.30
2018,06,01,11,47,11.30
2018,06,01,11,48,11.40
2018,06,01,11,49,11.40
2018,06,01,11,50,11.40
2018,06,01,11,51,11.50
2018,06,01,11,52,11.50
2018,06,01,11,53,11.60
2018,06,01,11,54,11.70
2018,06,01,11,55,11.70
2018,06,01,11,56,11.80
2018,06,01,11,57,11.80
2018,06,01,11,58,11.90
2018,06,01,11,59,11.90
2018,06,01,12,00,11.90
2018,06,01,12,01,11.80
2018,06,01,12,02,11.80
2018,06,01,12,03,11.80
2018,06,01,12,04,11.80
2018,06,01,12,05,11.80
2018,06,01,12,06,11.80
2018,06,01,12,07,11.90
2018,06,01,12,08,12.00
2018,06,01,12,09,12.00
2018,06,01,12,10,12.10
2018,06,01,12,11,12.10
2018,06,01,12,12,12.10
2018,06,01,12,13,12.10
2018,06,01,12,14,12.10
2018,06,01,12,15,12.20
2018,06,01,12,16,12.20
2018,06,01,12,17,12.20
2018,06,01,12,18,12.30
2018,06,01,12,19,12.30
2018,06,01,12,20,12.30
2018,06,01,12,21,12.40
2018,06,01,12,22,12.40
2018,06,01,12,23,12.40
2018,06,01,12,24,12.40
2018,06,01,12,25,12.50
2018,06,01,12,26,12.60
2018,06,01,12,27,12.60
2018,06,01,12,28,12.70
2018,06,01,12,29,12.80
2018,06,01,12,30,12.90
2018,06,01,12,31,13.00
2018,06,01,12,32,13.00
2018,06,01,12,33,13.10
2018,06,01,12,34,13.20
2018,06,01,12,35,13.30
2018,06,01,12,36,13.30
2018,06,01,12,37,13.40
2018,06,01,12,38,13.50
2018,06,01,12,39,13.60
2018,06,01,12,40,13.60
2018,06,01,12,41,13.70
2018,06,01,12,42,13.70
2018,06,01,12,43,13.70
2018,06,01,12,44,13.70
2018,06,01,12,45,13.70
2018,06,01,12,46,13.80
2018,06,01,12,47,13.80
2018,06,01,12,48,13.80
2018,06,01,12,49,13.90
2018,06,01,12,50,13.90
2018,06,01,12,51,13.90
2018,06,01,12,52,13.90
2018,06,01,12,53,14.00
2018,06,01,12,54,14.00
2018,06,01,12,55,14.10
2018,06,01,12,56,14.10
2018,06,01,12,57,14.10
2018,06,01,12,58,14.20
2018,06,01,12,59,14.20
2018,06,01,13,00,14.30
2018,06,01,13,01,14.30
2018,06,01,13,02,14.30
2018,06,01,13,03,14.30
2018,06,01,13,04,14.30
2018,06,01,13,05,14.30
2018,06,01,13,06,14.40
2018,06,01,13,07,14.40
2018,06,01,13,08,14.50
2018,06,01,13,09,14.50
2018,06,01,13,10,14.60
2018,06,01,13,11,14.60
2018,06,01,13,12,14.70
2018,06,01,13,13,14.70
2018,06,01,13,14,14.70
2018,06,01,13,15,14.70
2018,06,01,13,16,14.80
2018,06,01,13,17,14.90
2018,06,01,13,18,15.00
2018,06,01,13,19,15.10
2018,06,01,13,20,15.30
2018,06,01,13,21,15.40
2018,06,01,13,22,15.60
2018,06,01,13,23,15.70
2018,06,01,13,24,15.80
2018,06,01,13,25,15.90
2018,06,01,13,26,16.00
2018,06,01,13,27,16.00
2018,06,01,13,28,16.10
2018,06,01,13,29,16.10
2018,06,01,13,30,16.20
2018,06,01,13,31,16.30
2018,06,01,13,32,16.30
2018,06,01,13,33,16.40
2018,06,01,13,34,16.50
2018,06,01,13,35,16.50
2018,06,01,13,36,16.60
2018,06,01,13,37,16.60
2018,06,01,13,38,16.60
2018,06,01,13,39,16.70
2018,06,01,13,40,16.70
2018,06,01,13,41,16.70
2018,06,01,13,42,16.70
2018,06,01,13,43,16.70
2018,06,01,13,44,16.70
2018,06,01,13,45,16.70
2018,06,01,13,46,16.70
2018,06,01,13,47,16.80
2018,06,01,13,48,16.80
2018,06,01,13,49,16.80
2018,06,01,13,50,16.80
2018,06,01,13,51,16.80
2018,06,01,13,52,16.80
2018,06,01,13,53,16.80
2018,06,01,13,54,16.90
2018,06,01,13,55,16.90
2018,06,01,13,56,17.00
2018,06,01,13,57,17.00
2018,06,01,13,58,17.00
2018,06,01,13,59,17.00
2018,06,01,14,00,17.00
2018,06,01,14,01,17.00
2018,06,01,14,02,17.00
2018,06,01,14,03,17.00
2018,06,01,14,04,17.00
2018,06,01,14,05,17.00
2018,06,01,14,06,17.00
2018,06,01,14,07,17.00
2018,06,01,14,08,17.00
2018,06,01,14,09,17.00
2018,06,01,14,10,17.00
2018,06,01,14,11,17.00
2018,06,01,14,12,17.10
2018,06,01,14,13,17.10
2018,06,01,14,14,17.10
2018,06,01,14,15,17.10
2018,06,01,14,16,17.10
2018,06,01,14,17,17.10
2018,06,01,14,18,17.10
2018,06,01,14,19,17.20
2018,06,01,14,20,17.20
2018,06,01,14,21,17.20
2018,06,01,14,22,17.20
2018,06,01,14,23,17.20
2018,06,01,14,24,17.30
2018,06,01,14,25,17.30
2018,06,01,14,26,17.30
2018,06,01,14,27,17.40
2018,06,01,14,28,17.40
2018,06,01,14,29,17.50
2018,06,01,14,30,17.50
2018,06,01,14,31,17.60
2018,06,01,14,32,17.70
2018,06,01,14,33,17.80
2018,06,01,14,34,17.80
2018,06,01,14,35,17.90
2018,06,01,14,36,17.90
2018,06,01,14,37,18.00
2018,06,01,14,38,18.00
2018,06,01,14,39,18.10
2018,06,01,14,40,18.10
2018,06,01,14,41,18.10
2018,06,01,14,42,18.00
2018,06,01,14,43,18.00
2018,06,01,14,44,18.00
2018,06,01,14,45,18.10
2018,06,01,14,46,18.10
2018,06,01,14,47,18.10
2018,06,01,14,48,18.10
2018,06,01,14,49,18.10
2018,06,01,14,50,18.00
2018,06,01,14,51,18.00
2018,06,01,14,52,18.00
2018,06,01,14,53,18.00
2018,06,01,14,54,18.00
2018,06,01,14,55,18.10
2018,06,01,14,56,18.10
2018,06,01,14,57,18.20
2018,06,01,14,58,18.30
2018,06,01,14,59,18.30
2018,06,01,15,00,18.40
2018,06,01,15,01,18.50
2018,06,01,15,02,18.50
2018,06,01,15,03,18.60
2018,06,01,15,04,18.70
2018,06,01,15,05,18.70
2018,06,01,15,06,18.80
2018,06,01,15,07,18.80
2018,06,01,15,08,18.80
2018,06,01,15,09,18.80
2018,06,01,15,10,18.80
2018,06,01,15,11,18.80
2018,06,01,15,12,18.80
2018,06,01,15,13,18.80
2018,06,01,15,14,18.80
2018,06,01,15,15,18.80
2018,06,01,15,16,18.90
2018,06,01,15,17,18.90
2018,06,01,15,18,19.00
2018,06,01,15,19,19.10
2018,06,01,15,20,19.10
2018,06,01,15,21,19.10
2018,06,01,15,22,19.10
2018,06,01,15,23,19.10
2018,06,01,15,24,19.20
2018,06,01,15,25,19.20
2018,06,01,15,26,19.20
2018,06,01,15,27,19.30
2018,06,01,15,28,19.30
2018,06,01,15,29,19.30
2018,06,01,15,30,19.30
2018,06,01,15,31,19.40
2018,06,01,15,32,19.40
2018,06,01,15,33,19.50
2018,06,01,15,34,19.50
2018,06,01,15,35,19.50
2018,06,01,15,36,19.50
2018,06,01,15,37,19.40
2018,06,01,15,38,19.40
2018,06,01,15,39,19.40
2018,06,01,15,40,19.50
2018,06,01,15,41,19.50
2018,06,01,15,42,19.60
2018,06,01,15,43,19.60
2018,06,01,15,44,19.60
2018,06,01,15,45,19.60
2018,06,01,15,46,19.60
2018,06,01,15,47,19.50
2018,06,01,15,48,19.50
2018,06,01,15,49,19.40
2018,06,01,15,50,19.40
2018,06,01,15,51,19.40
2018,06,01,15,52,19.50
2018,06,01,15,53,19.50
2018,06,01,15,54,19.60
2018,06,01,15,55,19.60
2018,06,01,15,56,19.60
2018,06,01,15,57,19.60
2018,06,01,15,58,19.60
2018,06,01,15,59,19.60
2018,06,01,16,00,19.60
2018,06,01,16,01,19.60
2018,06,01,16,02,19.70
2018,06,01,16,03,19.70
2018,06,01,16,04,19.70
2018,06,01,16,05,19.80
2018,06,01,16,06,19.80
2018,06,01,16,07,19.80
2018,06,01,16,08,19.80
2018,06,01,16,09,19.80
2018,06,01,16,10,19.80
2018,06,01,16,11,19.80
2018,06,01,16,12,19.80
2018,06,01,16,13,19.80
2018,06,01,16,14,19.80
2018,06,01,16,15,19.90
2018,06,01,16,16,19.90
2018,06,01,16,17,19.90
2018,06,01,16,18,19.90
2018,06,01,16,19,19.90
2018,06,01,16,20,19.90
2018,06,01,16,21,19.90
2018,06,01,16,22,19.90
2018,06,01,16,23,19.90
2018,06,01,16,24,19.90
2018,06,01,16,25,20.00
2018,06,01,16,26,20.00
2018,06,01,16,27,20.00
2018,06,01,16,28,20.10
2018,06,01,16,29,20.10
2018,06,01,16,30,20.10
2018,06,01,16,31,20.20
2018,06,01,16,32,20.30
2018,06,01,16,33,20.30
2018,06,01,16,34,20.30
2018,06,01,16,35,20.30
2018,06,01,16,36,20.40
2018,06,01,16,37,20.40
2018,06,01,16,38,20.40
2018,06,01,16,39,20.40
2018,06,01,16,40,20.50
2018,06,01,16,41,20.50
2018,06,01,16,42,20.40
2018,06,01,16,43,20.40
2018,06,01,16,44,20.40
2018,06,01,16,45,20.40
2018,06,01,16,46,20.40
2018,06,01,16,47,20.40
2018,06,01,16,48,20.40
2018,06,01,16,49,20.40
2018,06,01,16,50,20.40
2018,06,01,16,51,20.40
2018,06,01,16,52,20.50
2018,06,01,16,53,20.50
2018,06,01,16,54,20.50
2018,06,01,16,55,20.60
2018,06,01,16,56,20.60
2018,06,01,16,57,20.70
2018,06,01,16,58,20.70
2018,06,01,16,59,20.70
2018,06,01,17,00,20.80
2018,06,01,17,01,20.90
2018,06,01,17,02,20.90
2018,06,01,17,03,21.00
2018,06,01,17,04,21.00
2018,06,01,17,05,21.00
2018,06,01,17,06,21.00
2018,06,01,17,07,21.00
2018,06,01,17,08,21.00
2018,06,01,17,09,21.00
2018,06,01,17,10,21.00
2018,06,01,17,11,20.90
2018,06,01,17,12,20.70
2018,06,01,17,13,20.40
2018,06,01,17,14,20.20
2018,06,01,17,15,19.90
2018,06,01,17,16,19.70
2018,06,01,17,17,19.60
2018,06,01,17,18,19.40
2018,06,01,17,19,19.30
2018,06,01,17,20,19.30
2018,06,01,17,21,19.20
2018,06,01,17,22,19.10
2018,06,01,17,23,19.10
2018,06,01,17,24,19.00
2018,06,01,17,25,18.90
2018,06,01,17,26,18.80
2018,06,01,17,27,18.70
2018,06,01,17,28,18.60
2018,06,01,17,29,18.60
2018,06,01,17,30,18.50
2018,06,01,17,31,18.40
2018,06,01,17,32,18.40
2018,06,01,17,33,18.30
2018,06,01,17,34,18.30
2018,06,01,17,35,18.20
2018,06,01,17,36,18.10
2018,06,01,17,37,18.00
2018,06,01,17,38,17.90
2018,06,01,17,39,17.90
2018,06,01,17,40,17.90
2018,06,01,17,41,17.80
2018,06,01,17,42,17.80
2018,06,01,17,43,17.80
2018,06,01,17,44,17.80